Date,TemperatureHighF,TemperatureAvgF,TemperatureLowF,DewpointHighF,DewpointAvgF,DewpointLowF,HumidityHigh,HumidityAvg,HumidityLow,PressureMaxIn,PressureMinIn,WindSpeedMaxMPH,WindSpeedAvgMPH,GustSpeedMaxMPH,PrecipitationSumIn
2013-8-1,82,71,63,67,61,55,95,73,39,29.96,29.88,7,1,14,0.01
2013-8-2,84,70,54,65,59,51,94,71,49,29.94,29.87,8,2,18,0.01
2013-8-3,83,72,63,67,64,54,95,77,51,30.02,29.88,4,0,9,0.78
2013-8-4,78,67,56,61,56,51,86,68,48,30.13,30.02,5,0,8,0.09
2013-8-5,80,68,58,62,58,55,94,75,42,30.07,29.89,3,1,9,0.00
2013-8-6,81,70,62,70,64,58,89,81,69,29.91,29.84,2,0,8,0.00
2013-8-7,86,75,69,73,70,67,95,85,64,29.86,29.78,4,1,11,0.15
2013-8-8,79,74,68,74,70,66,96,90,80,29.89,29.83,3,1,7,0.67
2013-8-9,83,73,67,69,67,63,94,81,58,29.97,29.86,2,0,10,0.01
2013-8-10,85,74,66,71,66,63,92,76,53,30.05,29.97,3,0,7,0.07
2013-8-11,83,73,63,72,65,62,96,79,52,30.06,29.99,3,0,7,0.07
2013-8-12,85,72,63,69,65,61,96,80,51,30.03,29.82,2,0,7,0.01
2013-8-13,74,67,56,67,57,-100,93,75,50,30.05,29.81,4,1,11,0.00
2013-8-14,70,59,48,53,49,45,91,72,50,30.16,30.05,4,1,11,0.00
2013-8-15,72,55,48,55,38,-100,95,71,48,30.16,30.07,3,0,8,0.00
2013-8-16,75,62,54,57,51,-100,93,73,52,30.14,30.08,5,1,9,0.00
2013-8-17,78,68,58,61,57,53,87,70,51,30.17,30.09,5,1,13,0.00
2013-8-18,83,69,57,64,57,-100,95,71,42,30.15,30.04,4,0,9,0.00
2013-8-19,86,68,57,65,51,-100,96,73,45,30.09,30.00,2,0,7,0.00
2013-8-20,88,73,60,66,61,-100,96,71,44,30.11,30.01,3,1,9,0.00
2013-8-21,90,76,66,71,67,64,95,74,45,30.09,29.97,3,0,7,0.00
2013-8-22,84,74,68,71,67,64,90,78,61,30.03,29.95,3,1,10,0.00
2013-8-23,83,71,63,68,65,61,96,82,56,30.10,30.01,3,0,9,0.00
2013-8-24,86,70,55,61,57,53,95,68,33,30.23,30.09,3,0,8,0.00
2013-8-25,90,72,56,64,58,-100,96,67,31,30.26,30.14,3,0,8,0.00
2013-8-26,89,75,61,74,66,58,94,76,48,30.17,30.01,4,1,12,0.00
2013-8-27,93,78,71,76,71,68,92,80,52,30.02,29.90,5,2,12,0.00
2013-8-28,92,86,73,76,74,69,89,69,58,29.91,29.83,5,1,11,0.00
2013-8-29,89,77,70,72,69,65,95,77,48,29.99,29.91,4,1,8,0.00
2013-8-30,93,78,64,75,68,63,96,75,49,29.93,29.75,5,1,9,0.04
2013-8-31,92,77,68,72,68,66,93,77,49,29.78,29.68,5,1,12,0.27